Regional Weather Roundup
Issued by NWS

Home | Current Version | Previous Version | Graphics & Text | Print | Product List | Glossary On
Versions: 1 2 3 4 5 6 7 8 9 10 11 12 13 14 15 16 17 18 19 20 21 22 23 24 25 26 27 28 29 30 31 32 33 34 35 36 37 38 39 40 41 42 43 44 45 46 47 48 49 50
043
ASUS43 KFSD 221102
RWRSD

WEATHER ROUNDUP FOR SOUTH DAKOTA
NATIONAL WEATHER SERVICE SIOUX FALLS SD
500 AM CST SUN JAN 22 2017

NOTE: "FAIR" INDICATES FEW OR NO CLOUDS BELOW 12,000 FEET WITH NO
SIGNIFICANT WEATHER AND/OR OBSTRUCTIONS TO VISIBILITY.


SDZ001>005-009-010-012>017-221200-
NORTHWEST AND NORTH CENTRAL SOUTH DAKOTA

CITY           SKY/WX    TMP DP  RH WIND       PRES   REMARKS
BUFFALO          N/A     19  16  88 W12       29.65R WCI   7
FAITH            N/A     19  17  92 NW12      29.72R WCI   7
MOBRIDGE       CLOUDY    13   8  81 N6        29.69R WCI   4
$$

SDZ012>016-024>037-041>051-057-063-072>074-221200-
SOUTHWEST AND SOUTH CENTRAL SOUTH DAKOTA

CITY           SKY/WX    TMP DP  RH WIND       PRES   REMARKS
RAPID CTY ARPT CLOUDY    28  19  69 W10       29.73R WCI  19
PIERRE         CLOUDY    18  15  88 NW14      29.71S WCI   4
CUSTER         CLEAR     22  15  75 W6        29.70S WCI  14
PHILIP         CLOUDY    24  21  88 W9        29.74R WCI  14
PINE RIDGE     MOCLDY    12  11  95 CALM      29.76R FOG
SPEARFISH      FAIR      28  19  69 SW9       29.73S WCI  20
WINNER         FAIR      24  21  88 NW6       29.73R WCI  17
$$

SDZ004>011-016>023-039-040-221200-
NORTHEAST SOUTH DAKOTA

CITY           SKY/WX    TMP DP  RH WIND       PRES   REMARKS
ABERDEEN       CLOUDY    28  25  88 NW10      29.70S FOG     WCI  19
WATERTOWN      CLOUDY    32  31  96 NW10      29.64R FOG     WCI  24
BROOKINGS      CLOUDY    32  31  96 NW9       29.64R FOG     WCI  24
SISSETON         N/A     34  34 100 N10       29.65R WCI  26
$$

SDZ017-020-022-023-036>040-048>070-221200-
SOUTHEAST SOUTH DAKOTA

CITY           SKY/WX    TMP DP  RH WIND       PRES   REMARKS
SIOUX FALLS    CLOUDY    33  31  92 NW9       29.65R WCI  25
HURON          CLOUDY    27  27 100 NW12      29.70R FOG     WCI  17
CHAMBERLAIN    CLEAR     22  22  97 W7        29.73R WCI  14
MITCHELL       MOCLDY    30  28  92 W10       29.71R FOG     WCI  21
YANKTON        CLOUDY    30  27  86 NW13      29.68R WCI  20
$$

ABBREVIATIONS USED IN REMARKS
   TC - TEMPERATURE IN CELSIUS
  WCI - WIND CHILL INDEX
   HX - HEAT INDEX
  VSB - VISIBILITY





USA.gov is the U.S. government's official web portal to all federal, state and local government web resources and services.